This is the latest recevied weather packets stored in our database for station/object KK4WXG. If no packets are shown the sender has not sent any weather packets the latest 10 day(s).
| Time | Temp. | Humidity | Pressure | Rain* | Wind** | Luminosity | Snow |
|---|---|---|---|---|---|---|---|
| 1777928836 | 24.44° C | 36% | 1008.3 hPa | 0 mm | - | 532 W/m² | - |
| 1777928533 | 25° C | 34% | 1008.2 hPa | 0 mm | - | 546 W/m² | - |
| 1777928230 | 24.44° C | 34% | 1008.4 hPa | 0 mm | - | 540 W/m² | - |
| 1777927927 | 25° C | 35% | 1008.4 hPa | 0 mm | - | 531 W/m² | - |
| 1777927626 | 25° C | 35% | 1008.3 hPa | 0 mm | - | 555 W/m² | - |
| 1777927324 | 25° C | 34% | 1008.4 hPa | 0 mm | - | 577 W/m² | - |
| 1777927023 | 24.44° C | 35% | 1008.4 hPa | 0 mm | - | 607 W/m² | - |
| 1777926720 | 24.44° C | 35% | 1008.3 hPa | 0 mm | - | 618 W/m² | - |
| 1777926420 | 24.44° C | 34% | 1008.6 hPa | 0 mm | - | 619 W/m² | - |
| 1777926118 | 23.89° C | 35% | 1008.6 hPa | 0 mm | - | 645 W/m² | - |
| 1777925814 | 24.44° C | 34% | 1008.5 hPa | 0 mm | - | 649 W/m² | - |
| 1777925512 | 23.89° C | 38% | 1008.8 hPa | 0 mm | - | 678 W/m² | - |
| 1777925209 | 24.44° C | 35% | 1008.8 hPa | 0 mm | - | 701 W/m² | - |
| 1777924906 | 23.89° C | 36% | 1009 hPa | 0 mm | - | 713 W/m² | - |
| 1777924601 | 23.89° C | 37% | 1008.9 hPa | 0 mm | - | 712 W/m² | - |
| 1777924298 | 23.89° C | 37% | 1009.1 hPa | 0 mm | - | 682 W/m² | - |
| 1777923995 | 23.89° C | 38% | 1009 hPa | 0 mm | - | 505 W/m² | - |
| 1777923691 | 23.89° C | 38% | 1009.2 hPa | 0 mm | - | 302 W/m² | - |
| 1777923387 | 23.89° C | 36% | 1009.3 hPa | 0 mm | - | 187 W/m² | - |
| 1777923086 | 23.89° C | 37% | 1009.6 hPa | 0 mm | - | 859 W/m² | - |
| 1777922783 | 23.89° C | 37% | 1009.6 hPa | 0 mm | - | 918 W/m² | - |
| 1777922481 | 24.44° C | 37% | 1009.6 hPa | 0 mm | - | 247 W/m² | - |
| 1777922179 | 24.44° C | 37% | 1009.4 hPa | 0 mm | - | 843 W/m² | - |
| 1777921875 | 24.44° C | 35% | 1009.6 hPa | 0 mm | - | 843 W/m² | - |
| 1777921571 | 23.89° C | 40% | 1009.6 hPa | 0 mm | - | 851 W/m² | - |
* Rain latest hour (hover to see other rain measurements)
** Current wind speed in m/s (hover to see current wind gust speed)